Satellite: AUBIESAT Catalog number: 37854 Epoch time: 13282.28741574 Element set: 602 Inclination: 101.7008 deg RA of node: 189.9173 deg Eccentricity: 0.0232212 Arg of perigee: 058.3509 deg Mean anomaly: 059.6604 deg Mean motion: 14.85240455 rev/day Decay rate: 1.0835e-04 rev/day^2 Epoch rev: 10539 Checksum: 296
Satellite: HRBE Catalog number: 37855 Epoch time: 13283.72222406 Element set: 611 Inclination: 101.7008 deg RA of node: 191.6893 deg Eccentricity: 0.0233363 Arg of perigee: 054.8799 deg Mean anomaly: 358.4735 deg Mean motion: 14.84880871 rev/day Decay rate: 9.980e-05 rev/day^2 Epoch rev: 10559 Checksum: 332
Satellite: RS-39 Catalog number: 38051 Epoch time: 13283.81754691 Element set: 863 Inclination: 051.6354 deg RA of node: 011.1743 deg Eccentricity: 0.0010833 Arg of perigee: 326.7889 deg Mean anomaly: 133.1808 deg Mean motion: 15.35773631 rev/day Decay rate: 1.9668e-04 rev/day^2 Epoch rev: 9553 Checksum: 328
Satellite: E-STAR Catalog number: 38079 Epoch time: 13283.08057591 Element set: 509 Inclination: 069.4736 deg RA of node: 264.7091 deg Eccentricity: 0.0569992 Arg of perigee: 343.5064 deg Mean anomaly: 014.7989 deg Mean motion: 14.58080582 rev/day Decay rate: 1.07113e-03 rev/day^2 Epoch rev: 8642 Checksum: 341
Satellite: GOLIAT Catalog number: 38085 Epoch time: 13283.06926244 Element set: 447 Inclination: 069.4704 deg RA of node: 267.9243 deg Eccentricity: 0.0580691 Arg of perigee: 345.1311 deg Mean anomaly: 013.3342 deg Mean motion: 14.55377446 rev/day Decay rate: 9.0746e-04 rev/day^2 Epoch rev: 8633 Checksum: 314
Satellite: HORYU-2 Catalog number: 38340 Epoch time: 13282.84967539 Element set: 630 Inclination: 098.2280 deg RA of node: 231.5811 deg Eccentricity: 0.0011434 Arg of perigee: 247.8599 deg Mean anomaly: 112.1431 deg Mean motion: 14.71210680 rev/day Decay rate: 1.253e-05 rev/day^2 Epoch rev: 7497 Checksum: 293
Satellite: RS-40 Catalog number: 38736 Epoch time: 13282.62162459 Element set: 393 Inclination: 082.4735 deg RA of node: 083.7729 deg Eccentricity: 0.0022161 Arg of perigee: 077.3164 deg Mean anomaly: 283.0395 deg Mean motion: 12.42871612 rev/day Decay rate: 1.0e-07 rev/day^2 Epoch rev: 5446 Checksum: 297
Satellite: PROITERES Catalog number: 38756 Epoch time: 13283.83282147 Element set: 192 Inclination: 098.2458 deg RA of node: 002.9591 deg Eccentricity: 0.0013958 Arg of perigee: 097.1961 deg Mean anomaly: 263.0819 deg Mean motion: 14.74357058 rev/day Decay rate: 5.68e-06 rev/day^2 Epoch rev: 5843 Checksum: 335
Satellite: RAIKO Catalog number: 38852 Epoch time: 13218.07382584 Element set: 340 Inclination: 051.6160 deg RA of node: 184.0336 deg Eccentricity: 0.0004489 Arg of perigee: 261.9162 deg Mean anomaly: 100.6538 deg Mean motion: 16.48474690 rev/day Decay rate: 2.4681979e-01 rev/day^2 Epoch rev: 4784 Checksum: 326
Satellite: FITSAT 1 Catalog number: 38853 Epoch time: 13184.86912902 Element set: 315 Inclination: 051.6252 deg RA of node: 351.6077 deg Eccentricity: 0.0011722 Arg of perigee: 245.9321 deg Mean anomaly: 114.2104 deg Mean motion: 16.39337660 rev/day Decay rate: 6.638326e-02 rev/day^2 Epoch rev: 4270 Checksum: 289
Satellite: TechEdSat Catalog number: 38854 Epoch time: 13124.93253577 Element set: 290 Inclination: 051.6449 deg RA of node: 297.0261 deg Eccentricity: 0.0010505 Arg of perigee: 310.8629 deg Mean anomaly: 049.0629 deg Mean motion: 16.38844728 rev/day Decay rate: 1.1592855e-01 rev/day^2 Epoch rev: 3329 Checksum: 325
Satellite: F 1 Catalog number: 38855 Epoch time: 13129.77714356 Element set: 287 Inclination: 051.5085 deg RA of node: 272.4145 deg Eccentricity: 0.0008326 Arg of perigee: 194.2908 deg Mean anomaly: 166.5495 deg Mean motion: 16.49710473 rev/day Decay rate: 2.7424026e-01 rev/day^2 Epoch rev: 3394 Checksum: 332
Satellite: WeWish Catalog number: 38856 Epoch time: 13069.98095549 Element set: 248 Inclination: 051.6166 deg RA of node: 215.0521 deg Eccentricity: 0.0008325 Arg of perigee: 316.0438 deg Mean anomaly: 044.8765 deg Mean motion: 16.41348316 rev/day Decay rate: 1.6701328e-01 rev/day^2 Epoch rev: 2458 Checksum: 318
Satellite: OSSI-1 Catalog number: 39131 Epoch time: 13188.41684431 Element set: 8 Inclination: 064.8841 deg RA of node: 114.8425 deg Eccentricity: 0.0051126 Arg of perigee: 026.6892 deg Mean anomaly: 350.0589 deg Mean motion: 16.22925119 rev/day Decay rate: 1.502874e-02 rev/day^2 Epoch rev: 1237 Checksum: 296
Satellite: BEESAT-3 Catalog number: 39134 Epoch time: 13282.96497335 Element set: 391 Inclination: 064.8792 deg RA of node: 207.8997 deg Eccentricity: 0.0002152 Arg of perigee: 284.8345 deg Mean anomaly: 075.2596 deg Mean motion: 15.01119909 rev/day Decay rate: 4.241e-05 rev/day^2 Epoch rev: 2605 Checksum: 323
Satellite: BEESAT-2 Catalog number: 39136 Epoch time: 13283.17004779 Element set: 381 Inclination: 064.8808 deg RA of node: 207.2945 deg Eccentricity: 0.0002200 Arg of perigee: 280.4057 deg Mean anomaly: 079.6870 deg Mean motion: 15.01010592 rev/day Decay rate: 3.984e-05 rev/day^2 Epoch rev: 2608 Checksum: 291
/EX